This demonstration page uses our WeatherBlox Daily Observations layout. Learn more.

38.88101, -77.10428

Hourly Observations for October 28, 2016

Temp ( °F °C ) Dew Point ( °F °C ) Humidity (%) Winds ( mph kmh ) Pressure ( in mb ) Visibility ( mi km ) Precip ( " mm )
12:52 am 00:52 Mostly Clear 58 14.4 53 11.7 84 84 NNW 8 13 30.09 1019 10 16.09344 0 0
1:52 am 01:52 Clear 56 13.3 49 9.4 77 77 NNW 14 22 30.12 1020 10 16.09344 0 0
2:52 am 02:52 Partly Cloudy 54 12.2 46 7.8 75 75 NNW 9 15 30.12 1020 10 16.09344 0 0
3:52 am 03:52 Mostly Cloudy 53 11.7 43 6.1 69 69 NNW 14 22 30.12 1020 10 16.09344 0 0
4:52 am 04:52 Partly Cloudy 52 11.1 42 5.6 69 69 NNW 15 24 30.15 1021 10 16.09344 0 0
5:52 am 05:52 Partly Cloudy 52 11.1 41 5 66 66 NNW 16 26 30.18 1022 10 16.09344 0 0
6:52 am 06:52 Mostly Clear 53 11.7 39 3.9 59 59 NW 17 28 30.21 1023 10 16.09344 0 0
7:52 am 07:52 Mostly Sunny 52 11.1 39 3.9 61 61 NW 14 22 30.24 1024 10 16.09344 0 0
8:52 am 08:52 Partly Cloudy 54 12.2 40 4.4 59 59 NW 14 22 30.27 1025 10 16.09344 0 0
9:52 am 09:52 Partly Cloudy 57 13.9 40 4.4 53 53 NNW 10 17 30.27 1025 10 16.09344 0 0
10:52 am 10:52 Partly Cloudy 57 13.9 38 3.3 49 49 NW 25 41 30.24 1024 10 16.09344 0 0
11:52 am 11:52 Mostly Sunny 59 15 38 3.3 46 46 NW 26 43 30.24 1024 10 16.09344 0 0
12:43 pm 12:43 Mostly Cloudy 61 16.1 37 2.8 41 41 NW 23 37 30.24 1024 10 16.09344 0 0
12:52 pm 12:52 Mostly Cloudy 60 15.6 37 2.8 42 42 NW 20 31 30.24 1024 10 16.09344 0 0
1:11 pm 13:11 Mostly Cloudy 61 16.1 37 2.8 41 41 NW 12 19 30.24 1024 10 16.09344 0 0
1:52 pm 13:52 Mostly Cloudy 61 16.1 35 1.7 38 38 NNW 15 24 30.24 1024 10 16.09344 0 0
2:52 pm 14:52 Mostly Cloudy 63 17.2 36 2.2 37 37 NNW 20 31 30.21 1023 10 16.09344 0 0
3:52 pm 15:52 Mostly Cloudy 63 17.2 34 1.1 34 34 NW 20 31 30.21 1023 10 16.09344 0 0
4:52 pm 16:52 Mostly Cloudy 62 16.7 33 0.6 34 34 NW 15 24 30.21 1023 10 16.09344 0 0
5:52 pm 17:52 Partly Cloudy 60 15.6 34 1.1 38 38 NNW 10 17 30.21 1023 10 16.09344 0 0
6:52 pm 18:52 Mostly Clear 58 14.4 35 1.7 42 42 W 6 9 30.24 1024 10 16.09344 0 0
7:52 pm 19:52 Clear 58 14.4 36 2.2 44 44 Calm 30.27 1025 10 16.09344 0 0
8:52 pm 20:52 Clear 54 12.2 39 3.9 57 57 W 6 9 30.27 1025 10 16.09344 0 0
9:52 pm 21:52 Clear 54 12.2 37 2.8 53 53 WNW 6 9 30.27 1025 10 16.09344 0 0
10:52 pm 22:52 Clear 50 10 41 5 71 71 Calm 30.27 1025 10 16.09344 0 0
11:52 pm 23:52 Mostly Clear 50 10 41 5 71 71 WSW 3 6 30.27 1025 10 16.09344 0 0

Powered by AerisWeather